Location: Asheville, NC
(35.6000°N, 82.5500°W)
Time: 16:15:49
(UTC-05:00)

KKS-1 - Pass Details

Date: 11 February 2018
Orbit: 638 x 650 km, 98.3° (Epoch: 20 February)

Event Time Altitude Azimuth Distance (km) Brightness Sun altitude
Rises 19:00:31 0° 355° (N) 2,968 ? -11.2°
Reaches altitude 10° 19:03:11 10° 340° (NNW) 2,054 ? -11.7°
Maximum altitude 19:06:29 21° 292° (WNW) 1,472 ? -12.4°
Drops below altitude 10° 19:09:46 10° 244° (WSW) 2,046 ? -13.0°
Sets 19:12:25 0° 228° (SW) 2,952 ? -13.6°
